K7UV Weather Reports


Display with metric or nautical units.
time (UTC)temp
F
wind
direction
speed
MPH
gust
MPH
rain 1hr
in
rain 24hr
in
rain mn
in
humidity
%
barometer
mb
20260906213830 82 141 1.0 4.0 0.00 0.00 0.00 28 -103.3
20260906213339 82 11 0.0 2.0 0.00 0.00 0.00 28 -103.3
20260906212827 82 323 0.0 3.0 0.00 0.00 0.00 29 -103.3
20260906212334 82 165 0.0 3.0 0.00 0.00 0.00 28 -103.3
20260906211835 82 2 0.0 5.0 0.00 0.00 0.00 29 -103.3
20260906211324 82 151 1.0 5.0 0.00 0.00 0.00 28 -103.3
20260906210829 82 150 0.0 3.0 0.00 0.00 0.00 29 -103.3
20260906210339 82 139 1.0 5.0 0.00 0.00 0.00 29 -103.3
20260906205828 82 151 2.0 6.0 0.00 0.00 0.00 28 -103.3
20260906205337 82 149 1.0 6.0 0.00 0.00 0.00 29 -103.3
20260906204825 82 340 1.0 4.0 0.00 0.00 0.00 30 -103.3
20260906204334 82 146 0.0 4.0 0.00 0.00 0.00 31 -103.2
20260906203840 82 172 2.0 5.0 0.00 0.00 0.00 30 -103.2
20260906203328 82 75 2.0 5.0 0.00 0.00 0.00 30 -103.2
20260906202836 82 124 2.0 7.0 0.00 0.00 0.00 29 -103.2
20260906202343 83 134 2.0 7.0 0.00 0.00 0.00 29 -103.2
20260906201830 83 157 1.0 8.0 0.00 0.00 0.00 27 -103.2
20260906201339 83 130 2.0 8.0 0.00 0.00 0.00 27 -103.2
20260906200904 84 196 3.0 8.0 0.00 0.00 0.00 25 -103.2
20260906200351 83 164 3.0 6.0 0.00 0.00 0.00 26 -103.2
20260906195840 82 141 4.0 7.0 0.00 0.00 0.00 26 -103.2
20260906195327 82 164 2.0 7.0 0.00 0.00 0.00 26 -103.2
20260906194834 81 168 3.0 7.0 0.00 0.00 0.00 27 -103.2
20260906194325 81 148 3.0 9.0 0.00 0.00 0.00 27 -103.1
20260906193830 81 155 3.0 8.0 0.00 0.00 0.00 27 -103.1
20260906193340 81 166 4.0 8.0 0.00 0.00 0.00 27 -103.1
20260906192830 81 167 3.0 10.0 0.00 0.00 0.00 26 -103.1
20260906192340 82 221 2.0 10.0 0.00 0.00 0.00 26 -103.1
20260906191830 82 325 1.0 6.0 0.00 0.00 0.00 25 -103.1
20260906191340 83 191 2.0 8.0 0.00 0.00 0.00 27 -103.1
20260906190849 83 153 1.0 8.0 0.00 0.00 0.00 26 -103.1
20260906190404 84 351 1.0 5.0 0.00 0.00 0.00 26 -103.1
20260906185853 83 80 1.0 5.0 0.00 0.00 0.00 27 -103.1
20260906185337 83 250 2.0 6.0 0.00 0.00 0.00 26 -103.1
20260906184824 83 146 1.0 5.0 0.00 0.00 0.00 27 -103.1
20260906184332 82 122 3.0 6.0 0.00 0.00 0.00 27 -103.1
20260906183822 82 147 3.0 9.0 0.00 0.00 0.00 25 -103.1
20260906183328 82 155 2.0 9.0 0.00 0.00 0.00 28 -103.1
20260906182836 82 141 3.0 7.0 0.00 0.00 0.00 26 -103.1
20260906182326 82 9 0.0 4.0 0.00 0.00 0.00 26 -103.1
20260906181836 81 149 1.0 3.0 0.00 0.00 0.00 27 -103.1
20260906181324 81 54 1.0 4.0 0.00 0.00 0.00 26 -103.0
20260906180833 81 4 2.0 4.0 0.00 0.00 0.00 27 -103.0
20260906180339 80 326 1.0 5.0 0.00 0.00 0.00 28 -103.0
20260906175827 80 162 3.0 6.0 0.00 0.00 0.00 26 -103.0
20260906175332 80 317 2.0 7.0 0.00 0.00 0.00 29 -103.0
20260906174840 79 179 2.0 7.0 0.00 0.00 0.00 30 -103.0
20260906174327 79 162 2.0 4.0 0.00 0.00 0.00 30 -103.0
20260906173835 79 121 1.0 4.0 0.00 0.00 0.00 30 -103.0
20260906173343 78 153 1.0 5.0 0.00 0.00 0.00 30 -103.0
20260906172831 78 151 2.0 7.0 0.00 0.00 0.00 30 -103.0
20260906172339 78 150 0.0 7.0 0.00 0.00 0.00 31 -102.9
20260906171844 77 65 2.0 5.0 0.00 0.00 0.00 31 -102.9
20260906171351 77 165 1.0 7.0 0.00 0.00 0.00 32 -102.9
20260906170838 77 155 3.0 7.0 0.00 0.00 0.00 30 -102.9
20260906170327 77 113 1.0 9.0 0.00 0.00 0.00 31 -102.9
20260906165833 76 144 2.0 9.0 0.00 0.00 0.00 31 -102.9
20260906165342 76 148 3.0 7.0 0.00 0.00 0.00 30 -102.9
20260906164831 76 159 4.0 7.0 0.00 0.00 0.00 31 -102.9
20260906164340 76 170 3.0 9.0 0.00 0.00 0.00 32 -102.9
20260906163830 76 166 3.0 7.0 0.00 0.00 0.00 31 -102.9
20260906163339 76 122 3.0 7.0 0.00 0.00 0.00 32 -102.9
20260906162828 75 146 3.0 7.0 0.00 0.00 0.00 32 -102.9
20260906162403 75 174 2.0 7.0 0.00 0.00 0.00 32 -102.9
20260906161829 75 152 3.0 8.0 0.00 0.00 0.00 31 -102.9
20260906161337 75 155 2.0 6.0 0.00 0.00 0.00 32 -102.9
20260906160826 75 149 3.0 7.0 0.00 0.00 0.00 32 -102.9
20260906160328 75 159 3.0 7.0 0.00 0.00 0.00 32 -102.9
20260906155837 74 176 4.0 8.0 0.00 0.00 0.00 31 -102.9
20260906155324 75 159 3.0 7.0 0.00 0.00 0.00 32 -102.9
20260906154831 74 159 2.0 5.0 0.00 0.00 0.00 32 -102.9
20260906154359 74 148 1.0 9.0 0.00 0.00 0.00 33 -102.9
20260906153826 74 162 4.0 7.0 0.00 0.00 0.00 31 -102.9
20260906153331 74 176 3.0 6.0 0.00 0.00 0.00 31 -102.9
20260906152839 73 169 2.0 4.0 0.00 0.00 0.00 33 -102.9
20260906152348 73 163 2.0 6.0 0.00 0.00 0.00 34 -102.9
20260906151904 72 153 2.0 6.0 0.00 0.00 0.00 33 -102.9
20260906151329 72 148 0.0 1.0 0.00 0.00 0.00 35 -102.9
20260906150840 72 138 0.0 2.0 0.00 0.00 0.00 37 -102.9
20260906150328 72 148 0.0 2.0 0.00 0.00 0.00 34 -102.9
20260906145839 71 63 0.0 2.0 0.00 0.00 0.00 34 -102.9
20260906145326 71 108 0.0 2.0 0.00 0.00 0.00 33 -102.9
20260906144827 71 352 0.0 1.0 0.00 0.00 0.00 35 -102.9
20260906144335 72 79 0.0 1.0 0.00 0.00 0.00 34 -102.9
20260906143822 70 141 0.0 1.0 0.00 0.00 0.00 38 -102.9
20260906143351 69 141 0.0 1.0 0.00 0.00 0.00 36 -102.9
20260906142838 67 142 0.0 1.0 0.00 0.00 0.00 39 -102.9
20260906142327 67 143 0.0 1.0 0.00 0.00 0.00 42 -102.9
20260906141833 67 143 0.0 1.0 0.00 0.00 0.00 39 -102.9
20260906141340 66 142 0.0 1.0 0.00 0.00 0.00 41 -102.9
20260906140828 65 127 0.0 1.0 0.00 0.00 0.00 43 -102.9
20260906140336 63 197 0.0 1.0 0.00 0.00 0.00 44 -102.9
20260906135825 62 237 0.0 1.0 0.00 0.00 0.00 47 -102.9
20260906135334 60 237 0.0 1.0 0.00 0.00 0.00 49 -102.9
20260906134844 60 237 0.0 1.0 0.00 0.00 0.00 48 -102.9
20260906134337 60 236 0.0 0.0 0.00 0.00 0.00 48 -103.0
20260906133826 60 237 0.0 1.0 0.00 0.00 0.00 48 -103.0
20260906133420 60 237 0.0 1.0 0.00 0.00 0.00 48 -103.0
20260906132825 60 237 0.0 1.0 0.00 0.00 0.00 48 -103.0
20260906132336 61 233 0.0 0.0 0.00 0.00 0.00 47 -103.0
20260906131847 61 233 0.0 1.0 0.00 0.00 0.00 47 -103.0
20260906131333 61 233 0.0 1.0 0.00 0.00 0.00 46 -103.0
20260906130825 61 233 0.0 1.0 0.00 0.00 0.00 46 -103.0
20260906130336 62 155 0.0 1.0 0.00 0.00 0.00 44 -103.0
20260906125825 62 192 1.0 1.0 0.00 0.00 0.00 43 -103.0
20260906125332 63 307 0.0 1.0 0.00 0.00 0.00 43 -103.0
20260906124842 63 290 0.0 2.0 0.00 0.00 0.00 42 -103.0
20260906124351 64 65 0.0 2.0 0.00 0.00 0.00 39 -103.0
20260906123839 64 23 1.0 1.0 0.00 0.00 0.00 40 -103.0
20260906123351 65 356 0.0 1.0 0.00 0.00 0.00 38 -103.0
20260906122840 65 359 0.0 3.0 0.00 0.00 0.00 36 -103.0
20260906122328 66 6 1.0 3.0 0.00 0.00 0.00 35 -103.0
20260906121839 68 354 1.0 3.0 0.00 0.00 0.00 32 -103.0
20260906121327 68 318 0.0 3.0 0.00 0.00 0.00 30 -103.0
20260906120836 68 356 1.0 3.0 0.00 0.00 0.00 30 -103.1
20260906120325 69 316 0.0 1.0 0.00 0.00 0.00 28 -103.1
20260906115345 70 330 0.0 1.0 0.00 0.00 0.00 28 -103.1
20260906114835 70 332 0.0 1.0 0.00 0.00 0.00 27 -103.1
20260906114325 71 331 0.0 1.0 0.00 0.00 0.00 27 -103.1
20260906113834 71 160 0.0 2.0 0.00 0.00 0.00 25 -103.1
20260906113340 72 160 0.0 2.0 0.00 0.00 0.00 24 -103.1
20260906112828 73 156 0.0 3.0 0.00 0.00 0.00 24 -103.1
20260906112338 73 148 1.0 8.0 0.00 0.00 0.00 23 -103.1
20260906111825 73 153 1.0 8.0 0.00 0.00 0.00 23 -103.1
20260906111333 73 145 0.0 2.0 0.00 0.00 0.00 24 -103.1
20260906110823 73 144 1.0 3.0 0.00 0.00 0.00 23 -103.1
20260906110356 73 162 1.0 4.0 0.00 0.00 0.00 23 -103.1
20260906105825 74 207 1.0 4.0 0.00 0.00 0.00 24 -103.1
20260906105400 74 162 2.0 5.0 0.00 0.00 0.00 22 -103.1
20260906104828 74 150 1.0 6.0 0.00 0.00 0.00 22 -103.1
20260906104333 74 159 2.0 7.0 0.00 0.00 0.00 22 -103.1
20260906103822 74 145 3.0 7.0 0.00 0.00 0.00 22 -103.1
20260906103331 74 188 1.0 6.0 0.00 0.00 0.00 22 -103.1
20260906102820 74 155 2.0 5.0 0.00 0.00 0.00 21 -103.1
20260906102328 74 136 1.0 6.0 0.00 0.00 0.00 21 -103.1
20260906101836 74 155 1.0 6.0 0.00 0.00 0.00 21 -103.1
20260906101345 75 167 1.0 7.0 0.00 0.00 0.00 20 -103.1
20260906100850 75 160 3.0 8.0 0.00 0.00 0.00 20 -103.1
20260906100404 75 114 4.0 8.0 0.00 0.00 0.00 20 -103.1
20260906095829 75 150 1.0 8.0 0.00 0.00 0.00 20 -103.1
20260906095337 75 158 2.0 5.0 0.00 0.00 0.00 21 -103.1
20260906094825 75 175 2.0 6.0 0.00 0.00 0.00 21 -103.1
20260906094333 75 157 1.0 8.0 0.00 0.00 0.00 21 -103.1
20260906093840 75 175 3.0 8.0 0.00 0.00 0.00 21 -103.1
20260906093329 75 140 3.0 9.0 0.00 0.00 0.00 21 -103.1
20260906092837 75 181 3.0 9.0 0.00 0.00 0.00 21 -103.1
20260906092326 75 176 3.0 10.0 0.00 0.00 0.00 22 -103.1
20260906091859 75 165 4.0 10.0 0.00 0.00 0.00 22 -103.1
20260906091327 75 203 0.0 7.0 0.00 0.00 0.00 22 -103.1
20260906090837 75 154 2.0 7.0 0.00 0.00 0.00 21 -103.1
20260906090348 75 184 1.0 6.0 0.00 0.00 0.00 21 -103.1
20260906085836 75 137 1.0 7.0 0.00 0.00 0.00 21 -103.1
20260906085326 75 185 3.0 7.0 0.00 0.00 0.00 21 -103.1
20260906084832 75 158 3.0 6.0 0.00 0.00 0.00 21 -103.1
20260906084341 75 167 1.0 4.0 0.00 0.00 0.00 21 -103.1
20260906083831 75 146 1.0 4.0 0.00 0.00 0.00 20 -103.1
20260906083340 75 132 2.0 4.0 0.00 0.00 0.00 20 -103.1
20260906082829 75 129 1.0 4.0 0.00 0.00 0.00 20 -103.2
20260906082338 75 160 1.0 4.0 0.00 0.00 0.00 20 -103.1
20260906081827 75 148 0.0 3.0 0.00 0.00 0.00 19 -103.1
20260906081338 76 134 1.0 4.0 0.00 0.00 0.00 19 -103.1
20260906080828 76 149 2.0 4.0 0.00 0.00 0.00 18 -103.1
20260906080338 76 156 1.0 4.0 0.00 0.00 0.00 18 -103.1
20260906075827 76 146 1.0 4.0 0.00 0.00 0.00 18 -103.1
20260906075333 77 168 1.0 4.0 0.00 0.00 0.00 18 -103.1
20260906074824 77 165 2.0 5.0 0.00 0.00 0.00 17 -103.1
20260906074400 76 133 1.0 5.0 0.00 0.00 0.00 18 -103.1
20260906073827 77 131 2.0 4.0 0.00 0.00 0.00 18 -103.1
20260906073337 77 164 2.0 5.0 0.00 0.00 0.00 17 -103.1
20260906072826 77 148 2.0 5.0 0.00 0.00 0.00 18 -103.1
20260906072356 77 169 2.0 8.0 0.00 0.00 0.00 18 -103.1
20260906071826 77 158 3.0 8.0 0.00 0.00 0.00 17 -103.1
20260906071334 77 154 3.0 6.0 0.00 0.00 0.00 18 -103.1
20260906070843 77 176 3.0 6.0 0.00 0.00 0.00 18 -103.1
20260906070330 77 161 1.0 5.0 0.00 0.00 0.00 18 -103.1
20260906065837 77 187 1.0 6.0 0.00 0.00 0.00 17 -103.1
20260906065325 78 141 3.0 8.0 0.00 0.00 0.00 17 -103.1
20260906064832 77 139 3.0 8.0 0.00 0.00 0.00 17 -103.1
20260906064340 78 167 1.0 6.0 0.00 0.00 0.00 17 -103.2
20260906063827 78 136 2.0 6.0 0.00 0.00 0.00 17 -103.2
20260906063356 78 129 3.0 5.0 0.00 0.00 0.00 17 -103.2
20260906062825 78 167 3.0 5.0 0.00 0.00 0.00 17 -103.2
20260906062335 78 166 2.0 4.0 0.00 0.00 0.00 17 -103.2
20260906061825 78 153 2.0 8.0 0.00 0.00 0.00 17 -103.2
20260906061352 78 173 3.0 8.0 0.00 0.00 0.00 17 -103.2
20260906060859 78 159 2.0 4.0 0.00 0.00 0.00 17 -103.2
20260906060346 78 181 2.0 10.0 0.00 0.00 0.00 17 -103.2
20260906055837 78 151 3.0 7.0 0.00 0.00 0.00 17 -103.2
20260906055344 78 169 3.0 7.0 0.00 0.00 0.00 17 -103.2
20260906054832 78 169 2.0 7.0 0.00 0.00 0.00 17 -103.2
20260906054340 78 124 3.0 5.0 0.00 0.00 0.00 17 -103.2
20260906053827 78 162 1.0 6.0 0.00 0.00 0.00 17 -103.2
20260906053331 78 155 3.0 6.0 0.00 0.00 0.00 17 -103.2
20260906052834 79 150 2.0 5.0 0.00 0.00 0.00 16 -103.2
20260906052322 79 150 3.0 6.0 0.00 0.00 0.00 16 -103.2
20260906051827 79 195 2.0 9.0 0.00 0.00 0.00 17 -103.2
20260906051335 79 160 3.0 6.0 0.00 0.00 0.00 17 -103.2
20260906050823 79 107 3.0 6.0 0.00 0.00 0.00 17 -103.2
20260906050348 78 181 2.0 6.0 0.00 0.00 0.00 17 -103.2
20260906045831 78 193 2.0 6.0 0.00 0.00 0.00 18 -103.2
20260906045339 78 169 2.0 10.0 0.00 0.00 0.00 18 -103.2
20260906044827 78 160 2.0 10.0 0.00 0.00 0.00 18 -103.2
20260906044333 77 131 1.0 5.0 0.00 0.00 0.00 18 -103.2
20260906043843 77 127 1.0 4.0 0.00 0.00 0.00 18 -103.2
20260906043332 76 155 2.0 4.0 0.00 0.00 0.00 19 -103.2
20260906042822 75 144 1.0 4.0 0.00 0.00 0.00 20 -103.2
20260906042358 74 146 2.0 4.0 0.00 0.00 0.00 21 -103.2
20260906041827 74 120 0.0 4.0 0.00 0.00 0.00 23 -103.2
20260906041351 74 117 1.0 4.0 0.00 0.00 0.00 23 -103.2
20260906040857 74 149 1.0 3.0 0.00 0.00 0.00 23 -103.2
20260906040327 74 94 0.0 2.0 0.00 0.00 0.00 22 -103.2
20260906035835 74 92 1.0 2.0 0.00 0.00 0.00 22 -103.2
20260906035325 74 141 1.0 2.0 0.00 0.00 0.00 23 -103.2
20260906034830 74 145 1.0 3.0 0.00 0.00 0.00 23 -103.2
20260906034337 74 146 2.0 3.0 0.00 0.00 0.00 23 -103.2
20260906033846 74 125 3.0 3.0 0.00 0.00 0.00 23 -103.2
20260906033332 74 136 2.0 4.0 0.00 0.00 0.00 23 -103.2
20260906032820 75 124 3.0 5.0 0.00 0.00 0.00 23 -103.2
20260906032355 75 140 3.0 5.0 0.00 0.00 0.00 23 -103.2
20260906031843 75 131 2.0 4.0 0.00 0.00 0.00 23 -103.2
20260906031351 75 139 2.0 6.0 0.00 0.00 0.00 24 -103.2
20260906030854 75 129 2.0 6.0 0.00 0.00 0.00 24 -103.2
20260906030322 75 128 3.0 5.0 0.00 0.00 0.00 23 -103.2
20260906025831 75 148 3.0 5.0 0.00 0.00 0.00 23 -103.2
20260906025321 75 130 2.0 4.0 0.00 0.00 0.00 23 -103.2
20260906024829 75 148 2.0 4.0 0.00 0.00 0.00 23 -103.2
20260906024319 76 153 3.0 4.0 0.00 0.00 0.00 22 -103.3
20260906023826 76 119 3.0 5.0 0.00 0.00 0.00 23 -103.3
20260906023354 76 124 2.0 6.0 0.00 0.00 0.00 23 -103.3
20260906022842 76 118 3.0 6.0 0.00 0.00 0.00 23 -103.3
20260906022330 76 155 2.0 4.0 0.00 0.00 0.00 22 -103.3
20260906021840 76 126 0.0 4.0 0.00 0.00 0.00 22 -103.3
20260906021349 76 117 1.0 4.0 0.00 0.00 0.00 23 -103.3
20260906020817 76 79 1.0 2.0 0.00 0.00 0.00 23 -103.3
20260906020352 76 133 0.0 1.0 0.00 0.00 0.00 23 -103.3
20260906015838 76 137 0.0 1.0 0.00 0.00 0.00 23 -103.3
20260906015326 76 156 0.0 0.0 0.00 0.00 0.00 23 -103.3
20260906014825 77 157 0.0 0.0 0.00 0.00 0.00 23 -103.2
20260906014334 77 157 0.0 0.0 0.00 0.00 0.00 22 -103.2
20260906013822 76 157 0.0 0.0 0.00 0.00 0.00 22 -103.2
20260906013329 76 157 0.0 0.0 0.00 0.00 0.00 22 -103.2
20260906012838 77 157 0.0 0.0 0.00 0.00 0.00 21 -103.2
20260906012347 77 157 0.0 0.0 0.00 0.00 0.00 21 -103.2
20260906011833 77 157 0.0 0.0 0.00 0.00 0.00 20 -103.2
20260906011342 78 157 0.0 0.0 0.00 0.00 0.00 20 -103.2
20260906010857 78 158 0.0 0.0 0.00 0.00 0.00 20 -103.2
20260906010327 79 157 0.0 0.0 0.00 0.00 0.00 19 -103.2
20260906005836 79 157 0.0 0.0 0.00 0.00 0.00 19 -103.2
20260906005326 79 157 0.0 0.0 0.00 0.00 0.00 20 -103.2
20260906004836 80 158 0.0 1.0 0.00 0.00 0.00 19 -103.2
20260906004326 80 158 0.0 2.0 0.00 0.00 0.00 19 -103.2
20260906003832 80 137 0.0 2.0 0.00 0.00 0.00 19 -103.2
20260906003336 80 144 0.0 0.0 0.00 0.00 0.00 20 -103.2
20260906002335 80 144 0.0 0.0 0.00 0.00 0.00 21 -103.2
20260906001824 80 144 0.0 0.0 0.00 0.00 0.00 21 -103.2
20260906001333 80 163 0.0 4.0 0.00 0.00 0.00 22 -103.2
20260906000822 81 153 0.0 2.0 0.00 0.00 0.00 22 -103.2
20260906000357 81 128 0.0 1.0 0.00 0.00 0.00 21 -103.2
20260905235824 81 129 0.0 4.0 0.00 0.00 0.00 22 -103.2